Location: Berg
(47.2344°N, 9.5296°E)
Time: 21:53:52
(UTC+00:00)

SL-08 RB Rocket - Pass Details

Date: 24 January 2021
Orbit: 647 x 683 km, 97.8° (Epoch: 04 March)

Event Time Altitude Azimuth Distance (km) Brightness Sun altitude
Exits shadow 18:32:25 77° 79° (E) 677 3.5 -23.6°
Maximum altitude 18:32:27 77° 75° (ENE) 677 3.5 -23.6°
Drops below altitude 10° 18:36:57 10° 350° (N) 2,067 6.3 -24.4°
Sets 18:39:10 0° 349° (NNW) 2,979 7.2 -24.8°
